This demonstration page uses our WeatherBlox Daily Observations layout. Learn more.

Hourly Observations for November 1, 2018

Temp ( °F °C ) Dew Point ( °F °C ) Humidity (%) Winds ( mph kmh ) Pressure ( in mb ) Visibility ( mi km ) Precip ( " mm )
12:15 am 00:15 Clear 33 0.7 28 -2.4 80 80 S 3 6 30.06 1018 10 16.09344 0 0
12:35 am 00:35 Clear 34 0.9 28 -2.4 79 79 Calm 30.06 1018 10 16.09344 0 0
12:55 am 00:55 Clear 33 0.7 28 -2.1 82 82 SSW 5 7 30.03 1017 10 16.09344 0 0
1:15 am 01:15 Clear 32 0.2 27 -2.8 81 81 Calm 30.03 1017 10 16.09344 0 0
1:35 am 01:35 Clear 33 0.3 29 -1.8 86 86 SSW 3 6 30.03 1017 10 16.09344 0 0
1:55 am 01:55 Clear 33 0.4 28 -2 84 84 Calm 30.03 1017 10 16.09344 0 0
2:15 am 02:15 Clear 35 1.5 29 -1.6 80 80 Calm 30.03 1017 10 16.09344 0 0
2:30 am 02:30 Clear 34 1 28 -2.2 79 79 Calm 30.03 1017 10 16.09344 0 0
2:55 am 02:55 Clear 33 0.6 28 -2.1 82 82 SW 3 6 30.03 1017 10 16.09344 0 0
3:15 am 03:15 Clear 32 0.1 29 -1.9 87 87 SW 3 6 30.03 1017 10 16.09344 0 0
3:35 am 03:35 Clear 34 0.9 29 -1.5 84 84 SW 3 6 30.03 1017 10 16.09344 0 0
3:55 am 03:55 Clear 33 0.8 29 -1.6 84 84 Calm 30.03 1017 10 16.09344 0 0
4:15 am 04:15 Clear 32 0 28 -2.2 85 85 Calm 30.03 1017 10 16.09344 0 0
4:35 am 04:35 Clear 30 -1.3 27 -2.6 91 91 W 3 6 30.06 1018 10 16.09344 0 0
4:55 am 04:55 Clear 33 0.3 30 -1.2 90 90 W 5 7 30 1016 10 16.09344 0 0
5:15 am 05:15 Clear 34 1 29 -1.8 82 82 W 6 9 30 1016 10 16.09344 0 0
5:35 am 05:35 Clear 33 0.7 29 -1.7 84 84 W 6 9 30 1016 10 16.09344 0 0
5:55 am 05:55 Clear 35 1.5 29 -1.6 80 80 WNW 6 9 30 1016 10 16.09344 0 0
6:15 am 06:15 Clear 33 0.3 28 -2.2 84 84 WNW 7 11 30 1016 10 16.09344 0 0
6:35 am 06:35 Clear 31 -0.8 27 -3 85 85 WNW 5 7 30 1016 10 16.09344 0 0
6:55 am 06:55 Clear 30 -1.1 27 -2.7 89 89 Calm 30 1016 10 16.09344 0 0
7:15 am 07:15 Clear 30 -1 27 -2.7 88 88 Calm 30 1016 10 16.09344 0 0
7:35 am 07:35 Clear 30 -1.1 27 -2.8 88 88 WNW 5 7 30 1016 10 16.09344 0 0
7:55 am 07:55 Clear 31 -0.7 27 -2.8 86 86 WNW 5 7 30 1016 10 16.09344 0 0
8:15 am 08:15 Sunny 29 -1.5 26 -3.3 88 88 WNW 5 7 30.03 1017 10 16.09344 0 0
8:35 am 08:35 Sunny 32 0 27 -2.6 83 83 W 5 7 30 1016 10 16.09344 0 0
8:55 am 08:55 Sunny 33 0.6 28 -2 83 83 W 3 6 30 1016 10 16.09344 0 0
9:15 am 09:15 Sunny 37 2.5 31 -0.7 80 80 W 3 6 29.97 1015 10 16.09344 0 0
9:35 am 09:35 Sunny 42 5.5 33 0.3 69 69 Calm 29.94 1014 10 16.09344 0 0
9:55 am 09:55 Sunny 45 7.2 35 1.8 69 69 W 8 13 29.94 1014 10 16.09344 0 0
10:15 am 10:15 Partly Cloudy 48 9 37 3 66 66 W 8 13 29.91 1013 10 16.09344 0 0
10:35 am 10:35 Partly Cloudy 49 9.2 37 2.6 64 64 W 7 11 29.91 1013 10 16.09344 0 0
10:55 am 10:55 Partly Cloudy 50 10.2 37 3 61 61 WSW 7 11 29.91 1013 10 16.09344 0 0
11:15 am 11:15 Sunny 52 11.1 37 2.7 57 57 WSW 6 9 29.91 1013 10 16.09344 0 0
11:35 am 11:35 Sunny 53 11.9 36 2 51 51 WSW 8 13 29.88 1012 10 16.09344 0 0
11:55 am 11:55 Sunny 55 12.5 35 1.8 48 48 WSW 10 17 29.88 1012 10 16.09344 0 0
12:15 pm 12:15 Sunny 56 13.5 35 1.6 45 45 SW 10 17 29.85 1011 10 16.09344 0 0
12:35 pm 12:35 Sunny 55 13 33 0.8 44 44 SW 12 19 29.85 1011 10 16.09344 0 0
12:55 pm 12:55 Sunny 57 13.8 33 0.3 40 40 WSW 10 17 29.85 1011 10 16.09344 0 0
1:15 pm 13:15 Partly Cloudy 58 14.4 33 0.7 39 39 SW 13 20 29.83 1010 10 16.09344 0 0
1:35 pm 13:35 Mostly Cloudy 57 13.8 33 0.8 41 41 SW 15 24 29.83 1010 10 16.09344 0 0
1:55 pm 13:55 Cloudy 58 14.4 34 0.9 40 40 SW 13 20 29.77 1008 10 16.09344 0 0
2:15 pm 14:15 Mostly Cloudy 58 14.2 33 0.4 39 39 SW 12 19 29.77 1008 10 16.09344 0 0
2:35 pm 14:35 Mostly Cloudy 57 14 33 0.8 41 41 SW 15 24 29.8 1009 10 16.09344 0 0
2:55 pm 14:55 Cloudy 57 14.1 33 0.3 39 39 W 14 22 29.8 1009 10 16.09344 0 0
3:15 pm 15:15 Cloudy 58 14.5 32 0.2 38 38 WSW 14 22 29.77 1008 10 16.09344 0 0
3:35 pm 15:35 Cloudy 60 15.3 33 0.4 36 36 WSW 14 22 29.74 1007 10 16.09344 0 0
3:55 pm 15:55 Mostly Cloudy 60 15.4 30 -0.9 33 33 WSW 13 20 29.74 1007 10 16.09344 0 0
4:15 pm 16:15 Partly Cloudy 58 14.6 31 -0.7 35 35 W 10 17 29.74 1007 10 16.09344 0 0
4:35 pm 16:35 Cloudy 57 14.1 32 -0.1 38 38 WSW 9 15 29.74 1007 10 16.09344 0 0
4:55 pm 16:55 Cloudy 57 13.7 32 -0.1 39 39 WSW 10 17 29.77 1008 10 16.09344 0 0
5:15 pm 17:15 Cloudy 57 13.7 32 0.1 40 40 W 9 15 29.77 1008 10 16.09344 0 0
5:35 pm 17:35 Cloudy 56 13.6 32 0 40 40 WSW 6 9 29.77 1008 10 16.09344 0 0
5:55 pm 17:55 Cloudy 56 13.5 32 -0.1 40 40 W 7 11 29.77 1008 10 16.09344 0 0
6:15 pm 18:15 Cloudy 55 12.8 32 0 42 42 W 8 13 29.77 1008 10 16.09344 0 0
6:35 pm 18:35 Cloudy 55 12.5 28 -2.2 36 36 WNW 8 13 29.77 1008 10 16.09344 0 0
6:55 pm 18:55 Cloudy 53 11.5 28 -2.5 38 38 WNW 7 11 29.8 1009 10 16.09344 0 0
7:15 pm 19:15 Cloudy 52 11.3 28 -2.4 39 39 NW 8 13 29.8 1009 10 16.09344 0 0
7:35 pm 19:35 Mostly Cloudy 52 10.9 28 -2.2 40 40 NW 9 15 29.8 1009 10 16.09344 0 0
7:55 pm 19:55 Partly Cloudy 49 9.3 28 -2 45 45 NNW 7 11 29.83 1010 10 16.09344 0 0
8:15 pm 20:15 Clear 45 7.1 29 -1.6 54 54 NW 8 13 29.88 1012 10 16.09344 0 0
8:35 pm 20:35 Partly Cloudy 45 7.3 29 -1.5 54 54 NW 7 11 29.88 1012 10 16.09344 0 0
8:55 pm 20:55 Partly Cloudy 43 6.3 30 -1.1 59 59 NW 6 9 29.88 1012 10 16.09344 0 0
9:15 pm 21:15 Mostly Cloudy 42 5.6 30 -1.2 62 62 W 7 11 29.88 1012 10 16.09344 0 0
9:35 pm 21:35 Mostly Cloudy 43 6.1 30 -1 61 61 WNW 7 11 29.88 1012 10 16.09344 0 0
9:55 pm 21:55 Partly Cloudy 41 5.2 30 -1.1 64 64 WNW 7 11 29.91 1013 10 16.09344 0 0
10:15 pm 22:15 Clear 42 5.4 30 -1.1 63 63 WNW 6 9 29.91 1013 10 16.09344 0 0
10:35 pm 22:35 Clear 41 4.8 30 -1 66 66 WNW 8 13 29.91 1013 10 16.09344 0 0
10:55 pm 22:55 Clear 39 3.8 30 -1.1 71 71 NW 8 13 29.94 1014 10 16.09344 0 0
11:15 pm 23:15 Mostly Cloudy 40 4.7 31 -0.3 70 70 NW 10 17 29.94 1014 10 16.09344 0 0
11:35 pm 23:35 Partly Cloudy 43 6.1 33 0.5 68 68 NW 9 15 29.91 1013 10 16.09344 0 0
11:55 pm 23:55 Clear 42 5.8 33 0.7 70 70 NW 7 11 29.91 1013 10 16.09344 0 0

Powered by AerisWeather